Regional Weather Roundup
Issued by NWS

Home | Current Version | Previous Version | Graphics & Text | Print | Product List | Glossary On
Versions: 1 2 3 4 5 6 7 8 9 10 11 12 13 14 15 16 17 18 19 20 21 22 23 24 25 26 27 28 29 30 31 32 33 34 35 36 37 38 39 40 41 42 43 44 45 46 47 48 49 50
714
ASUS44 KLIX 211905
RWRLA
LOUISIANA WEATHER ROUNDUP
NATIONAL WEATHER SERVICE NEW ORLEANS LA
200 PM CDT SUN SEP 21 2014

NOTE: "FAIR" INDICATES FEW OR NO CLOUDS BELOW 12,000 FEET WITH NO
      SIGNIFICANT WEATHER AND/OR OBSTRUCTIONS TO VISIBILITY.
      SKY/WX - SKY CONDITION AND SIGNIFICANT WEATHER.
      TMP - AIR TEMPERATURE.    DP   - DEWPOINT TEMPERATURE.
      RH  - RELATIVE HUMIDITY.  PRES - PRESSURE.
      HX  - HEAT INDEX.         WCI  - WIND CHILL INDEX.

*  THESE STATIONS ARE NOT NWS OR FAA STATIONS AND ARE NOT UNDER
   NWS QUALITY CONTROL.

LAZ040-048-061>063-065-066-069-212000-
SOUTHEAST LOUISIANA

CITY           SKY/WX    TMP DP  RH WIND       PRES   REMARKS
N.O. AUDUBON     N/A     90  70  52 MISG        N/A  HX  95
N.O. INTL ARPT MOSUNNY   87  68  52 NE13      30.01F
N.O. LAKEFRONT SUNNY     87  69  54 N10       30.01F
N.O. DOWNTOWN* CLOUDY    84  66  54 NE6       30.01F
SLIDELL        MOSUNNY   88  67  49 NE10      30.00F
BATON ROUGE    SUNNY     89  66  46 NE8G17    30.01F
BOOTHVILLE     MOSUNNY   85  74  69 E14       29.99F
BELLE CHASSE   MOSUNNY   87  66  49 NE13      29.99F
BOGALUSA*        N/A     87  65  47 NE7       30.03F
GALLIANO*      NOT AVBL
NEW ROADS*     FAIR      87  68  52 N7        30.02F
GONZALES*      FAIR      87  66  50 CALM      30.00F
HAMMOND*       MOSUNNY   90  63  40 E5        30.02F
HOUMA*         NOT AVBL
PORT FOURCHON* MOCLDY    84  73  70 NE13      30.02F

$$

LAZ041-044-053-054-212000-
SOUTHWEST LOUISIANA

CITY           SKY/WX    TMP DP  RH WIND       PRES   REMARKS
LAKE CHARLES   MOSUNNY   89  70  53 NE12      30.01F
LAFAYETTE      SUNNY     88  67  49 NE8       30.01F
PATTERSON      NOT AVBL
SALT POINT       N/A     90  69  50 E7        30.00F
NEW IBERIA     SUNNY     89  68  49 NE13      30.01F
CHENAULT AIRPK MOSUNNY   88  72  58 VRB6      30.02F

$$

LAZ027-028-212000-
CENTRAL LOUISIANA

CITY           SKY/WX    TMP DP  RH WIND       PRES   REMARKS
FORT POLK      MOSUNNY   88  69  53 VRB5      30.03F
ALEXANDRIA INT PTSUNNY   87  69  54 N7        30.01F
ALEXANDRIA     MOSUNNY   89  70  53 E5        30.03F

$$

LAZ001-002-212000-
NORTHWEST LOUISIANA

CITY           SKY/WX    TMP DP  RH WIND       PRES   REMARKS
SHREVEPORT     MOSUNNY   93  63  36 CALM      30.02F
BARKSDALE AFB  SUNNY     92  63  37 VRB5      30.02F
DTN SHREVEPORT MOSUNNY   92  64  39 CALM      30.02F

$$

LAZ014-016-212000-
NORTHEAST LOUISIANA

CITY           SKY/WX    TMP DP  RH WIND       PRES   REMARKS
MONROE         MOSUNNY   90  68  48 VRB5      30.03F
TALLULAH       MOSUNNY   92  66  42 NE9       30.02F

$$




USA.gov is the U.S. government's official web portal to all federal, state and local government web resources and services.